Theta_e
323 321 320 317 315 310 306 305 301 299 297 298 298 296 294 292 292 292 292 292 292 292 293 293 293 293 293
321 320 318 315 312 309 306 302 299 299 297 296 296 294 289 291 291 291 290 290 290 290 291 291 292 292 292
321 319 311 310 304 303 302 300 299 297 295 294 292 289 290 290 290 290 290 289 289 289 290 291 291 291 291
318 308 304 302 304 301 299 298 298 296 292 291 290 289 289 289 289 289 288 288 288 289 290 290 290 290 290
317 306 303 299 300 300 301 300 297 295 291 290 289 289 288 288 289 288 288 288 288 289 290 289 289 289 289
316 310 309 305 302 300 299 296 293 291 289 289 288 288 287 287 287 288 287 287 288 289 288 288 288 288 287
315 312 312 307 303 298 297 294 292 290 288 287 288 288 288 287 288 287 287 287 288 288 287 287 287 287 287
316 314 311 305 304 300 295 291 289 287 286 288 289 288 288 287 287 287 286 287 287 286 286 286 286 286 286
311 310 307 304 301 295 290 289 289 287 286 287 287 287 286 286 285 286 286 286 286 285 285 286 286 286 286
299 297 297 294 294 293 289 290 289 288 287 286 287 285 285 286 286 285 285 284 285 285 285 285 285 285 284
292 291 289 289 288 288 288 288 287 288 286 286 285 284 284 284 284 284 284 284 284 284 284 284 285 285 285
291 289 288 287 286 286 286 286 286 286 285 284 283 283 282 282 282 284 283 282 283 283 283 283 284 284 285
291 289 287 286 286 285 284 284 284 284 284 283 282 281 282 281 281 281 282 283 283 283 283 283 283 283 283
288 287 286 285 284 284 284 283 284 284 282 282 281 281 281 280 280 282 282 282 283 282 283 283 283 283 283
286 285 285 285 285 284 284 284 285 285 284 283 283 282 281 281 280 280 281 282 283 283 283 282 283 283 283
286 285 285 285 284 284 284 284 284 284 284 284 283 281 281 283 282 281 282 282 282 282 282 282 282 283 284
285 285 285 284 284 284 284 284 284 284 284 283 281 280 278 280 282 284 282 281 281 280 280 281 282 282 283
Wind_Speed
25 24 27 28 25 21 21 19 15 13 13 15 17 19 23 19 14 13 13 15 15 15 16 16 17 19 21
26 23 26 26 23 21 21 16 16 15 15 15 17 21 21 13 13 14 14 16 15 15 15 16 18 18 20
20 18 20 21 20 21 21 20 16 17 16 16 17 16 13 14 16 16 15 16 16 15 15 17 17 19 21
19 11 9 14 20 17 13 17 15 14 11 13 14 14 16 16 16 16 16 15 15 15 15 16 17 19 19
12 5 8 7 15 16 16 14 16 17 14 13 14 13 14 13 15 16 15 14 16 15 16 17 18 20 20
16 8 18 18 15 19 16 7 3 16 12 14 13 15 13 13 15 16 16 17 15 16 17 18 19 20 22
25 24 18 29 23 21 17 12 8 11 9 8 10 13 12 13 16 17 17 16 15 18 19 19 19 21 21
33 27 25 27 31 25 24 16 10 9 7 2 4 9 10 14 17 17 14 13 16 19 19 19 20 21 19
24 20 20 24 28 26 20 16 3 6 10 3 3 7 12 16 12 11 11 15 19 18 18 20 21 18 20
18 20 24 22 24 22 22 12 5 3 11 8 1 4 4 5 6 10 14 16 16 17 19 19 18 17 19
27 26 25 25 15 14 17 20 11 3 12 8 2 1 4 7 11 13 12 14 17 18 17 17 15 16 20
19 19 21 20 20 19 14 11 10 12 13 9 4 3 3 5 5 9 15 21 18 16 14 16 17 18 19
21 17 19 24 20 20 16 11 9 10 9 7 7 7 9 9 10 14 15 10 21 18 13 18 20 19 21
22 27 26 26 18 17 14 11 7 5 5 8 10 10 13 16 19 23 20 11 13 20 19 21 22 22 22
31 24 22 21 17 17 13 12 5 9 8 7 7 10 17 23 20 22 22 20 19 20 20 22 24 23 23
25 28 22 20 20 13 13 10 8 7 6 4 5 9 10 11 23 22 18 18 19 20 21 21 25 20 19
21 24 23 21 18 14 12 10 7 6 4 3 2 6 3 3 10 19 20 18 19 21 21 20 23 26 22
Wind_Direction
240 229 234 226 226 223 228 232 239 233 238 257 270 277 285 289 280 280 288 288 288 287 288 291 294 295 298
239 226 220 223 228 227 228 230 219 242 248 260 270 278 282 268 263 275 282 280 284 283 283 286 289 295 299
236 215 212 208 210 223 225 227 236 232 247 263 267 268 257 256 264 268 272 274 280 280 280 281 289 295 297
224 188 199 209 206 195 198 216 218 232 240 242 242 251 258 261 264 263 267 272 277 277 275 283 291 294 293
209 166 169 176 196 194 190 193 212 226 237 241 250 255 256 255 258 262 264 268 275 270 275 283 290 291 290
201 208 198 212 192 180 170 155 208 219 224 245 237 241 252 250 260 261 267 272 266 267 277 285 289 289 291
203 211 199 204 191 169 170 167 169 179 199 264 243 239 251 259 265 267 272 267 262 271 278 286 287 288 290
215 224 210 195 199 192 175 160 154 180 197 236 228 242 265 269 271 270 259 259 269 275 279 283 283 286 286
215 214 205 195 188 166 149 142 169 170 195 223 268 298 287 278 268 250 255 272 280 278 279 281 282 280 283
151 150 158 160 175 178 169 154 130 156 188 179 356 13 321 270 253 259 278 281 276 282 283 280 275 276 279
148 146 143 147 157 152 170 177 157 115 169 163 118 315 253 293 290 276 280 280 288 287 283 278 268 272 274
142 143 143 144 151 148 155 177 172 126 161 183 170 195 293 296 265 302 300 296 290 282 283 281 278 282 275
147 148 142 145 150 146 155 181 175 161 170 210 223 228 243 249 278 287 308 298 290 280 277 285 283 280 280
150 135 141 143 143 150 151 178 160 147 193 218 233 240 253 258 262 274 280 273 281 290 291 289 285 280 274
138 138 140 139 141 154 156 171 149 153 177 221 255 257 264 266 269 261 267 269 275 289 294 289 285 279 274
145 140 143 139 141 155 163 164 153 164 186 210 255 313 307 279 246 252 265 272 285 292 289 286 284 283 277
135 133 133 136 145 159 158 151 155 168 183 216 272 279 281 266 285 240 255 274 286 289 283 279 284 287 286